Weather in Krasnokamsk

Russia / Perm Krai     58°04′42″N   55°44′10″E
temp.,
°C
wind,
m/s
gust,
m/s
humid.,
%
clouds,
%
prec.,
mm/h
press.,
hPa
HPBL,
m
2 march, tue
tue223:00−17ssw379559 0.0 1014164
02:00−16ssw4129457 0.0 1011390
05:00−14ssw5138979 0.0 1008471
08:00−14ssw51493100 0.3 1004557
11:00−14ssw51392100 1.1 1002575
14:00−11ssw51191100 0.7 999624
17:00−8ssw51192100 1.4 997647
20:00−9s31095100 0.8 996511
3 march, wed
wed323:00−8s2996100 1.5 995400
02:00−7sse1297100 0.8 99368
05:00−9w1197100 0.9 99421
08:00−11wsw1297100 0.0 99421
11:00−6wsw249496 0.1 995237
14:00−2wsw359196 0.0 995563
17:00−2wsw249198 0.1 996497
20:00−3wsw2597100 1.2 996275
4 march, thu
thu423:00−5nnw2896100 2.6 998423
02:00−8wnw2794100 0.4 997277
05:00−14w239582 0.4 99951
08:00−12wsw279667 0.1 999232
11:00−9sw379282 0.2 1000408
14:00−6sw4890100 0.1 999636
17:00−6sw4888100 0.2 999783
20:00−7ssw41291100 0.1 997565
5 march, fri
fri523:00−6s41291100 0.3 994729
02:00−5s51393100 0.8 989880
05:00−1sw61395100 2.7 9861111
08:00−3w71481100 1.6 9861215
11:00−5wsw7138386 1.6 9891336
14:00−7w71284100 0.2 9941045
17:00−7w51087100 0.3 999910
20:00−9w4993100 0.1 1003494
6 march, sat
sat623:00−12wsw2596100 0.2 1006136
02:00−16w239673 0.0 100833
05:00−19wsw229870 0.0 101021
08:00−20sw119982 0.0 101120
11:00−15s019191 0.0 1009194
14:00−11ene2388100 0.0 1006365
17:00−10ne2490100 0.0 1003456
20:00−11n3694100 0.2 1001253